This is the latest recevied weather packets stored in our database for station/object KC3DGM. If no packets are shown the sender has not sent any weather packets the latest 10 day(s).
| Time | Temp. | Humidity | Pressure | Rain* | Wind** | Luminosity | Snow |
|---|---|---|---|---|---|---|---|
| 1777303957 | 17.78° C | 55% | 992.9 hPa | 0 mm | - | 492 W/m² | - |
| 1777303654 | 18.33° C | 52% | 992.8 hPa | 0 mm | - | 644 W/m² | - |
| 1777303352 | 17.78° C | 62% | 993.2 hPa | 0 mm | - | 685 W/m² | - |
| 1777303049 | 17.78° C | 61% | 993.5 hPa | 0 mm | - | 738 W/m² | - |
| 1777302746 | 17.78° C | 57% | 992.9 hPa | 0 mm | - | 651 W/m² | - |
| 1777302445 | 17.22° C | 55% | 993.3 hPa | 0 mm | - | 698 W/m² | - |
| 1777302142 | 16.67° C | 56% | 993.1 hPa | 0 mm | - | 672 W/m² | - |
| 1777301839 | 16.67° C | 59% | 993.2 hPa | 0 mm | - | 530 W/m² | - |
| 1777301536 | 16.67° C | 57% | 992.9 hPa | 0 mm | - | 412 W/m² | - |
| 1777301233 | 16.67° C | 57% | 993.2 hPa | 0 mm | - | 493 W/m² | - |
| 1777300930 | 16.11° C | 57% | 993.1 hPa | 0 mm | - | 566 W/m² | - |
| 1777300628 | 16.67° C | 59% | 993.2 hPa | 0 mm | - | 655 W/m² | - |
| 1777300325 | 16.11° C | 60% | 993.1 hPa | 0 mm | - | 684 W/m² | - |
| 1777300022 | 16.11° C | 61% | 993.3 hPa | 0 mm | - | 736 W/m² | - |
| 1777299719 | 16.11° C | 60% | 993.3 hPa | 0 mm | - | 730 W/m² | - |
| 1777299416 | 15.56° C | 62% | 993.2 hPa | 0 mm | - | 643 W/m² | - |
| 1777299114 | 15.56° C | 65% | 993.2 hPa | 0 mm | - | 588 W/m² | - |
| 1777298811 | 15.56° C | 63% | 993.5 hPa | 0 mm | - | 604 W/m² | - |
| 1777298507 | 15° C | 65% | 993.4 hPa | 0 mm | - | 617 W/m² | - |
| 1777298204 | 14.44° C | 65% | 993.5 hPa | 0 mm | - | 656 W/m² | - |
| 1777297899 | 13.89° C | 68% | 993.6 hPa | 0 mm | - | 650 W/m² | - |
| 1777297596 | 13.89° C | 67% | 993.5 hPa | 0 mm | - | 623 W/m² | - |
| 1777297293 | 13.33° C | 71% | 993.7 hPa | 0 mm | - | 468 W/m² | - |
| 1777296991 | 12.78° C | 71% | 993.4 hPa | 0 mm | - | 473 W/m² | - |
| 1777296687 | 12.78° C | 72% | 993.7 hPa | 0 mm | - | 390 W/m² | - |
* Rain latest hour (hover to see other rain measurements)
** Current wind speed in m/s (hover to see current wind gust speed)